OBJECT B

基本信息
目录编号:
65939
目录名称:
OBJECT B
国际标识:
2025-226B
轨道中心:
EARTH
物体状态:
在轨
发射日期:
2025-10-11 UTC
国别:
中国 (CN)
轨道信息
数据来源: 国际轨道数据
星历时间: 2026-09-03T13:03:03+0800
半长轴: 6916.445km
偏心率: 0.0010852
轨道倾角: 97.635°
近地点辐角: 235.597°
升交点赤经: 324.450°
平近点角: 124.424°
近地点: 530.802km
远地点: 545.814km
周期: 95.408分钟
每日圈数: 15.0931
详细信息
发射场:
YSLA
轨道高度:
LEO
数据来源:
AOE Working Group
参考系:
TEME
时间系统:
UTC
历元类型:
SGP4
2D轨道图
3D轨道图
轨道高度分析图
轨道倾角分析图
轨道综合分析图
查看轨道综合分析图